This is the latest recevied weather packets stored in our database for station/object JA7ZQY-10. If no packets are shown the sender has not sent any weather packets the latest 10 day(s).
| Time | Temp. | Humidity | Pressure | Rain* | Wind** | Luminosity | Snow |
|---|---|---|---|---|---|---|---|
| 1788482768 | 24.44° C | 58% | 1012.6 hPa | 0 mm | - | - | - |
| 1788482168 | 25.56° C | 60% | 1012.6 hPa | 0 mm | - | - | - |
| 1788481567 | 24.44° C | 62% | 1012.5 hPa | 1.78 mm | - | - | - |
| 1788480969 | 24.44° C | 64% | 1012.5 hPa | 1.78 mm | - | - | - |
| 1788480368 | 23.89° C | 69% | 1012.1 hPa | 1.78 mm | - | - | - |
| 1788479768 | 23.33° C | 74% | 1012.3 hPa | 1.78 mm | - | - | - |
| 1788479169 | 21.67° C | 85% | 1012.2 hPa | 1.78 mm | - | - | - |
| 1788478569 | 21.11° C | 83% | 1012 hPa | 1.78 mm | - | - | - |
| 1788477968 | 22.22° C | 79% | 1011.9 hPa | 0 mm | - | - | - |
| 1788477368 | 22.22° C | 78% | 1011.9 hPa | 0.51 mm | - | - | - |
| 1788476769 | 22.22° C | 77% | 1011.9 hPa | 0.51 mm | - | - | - |
| 1788476168 | 22.22° C | 78% | 1012.1 hPa | 0.51 mm | - | - | - |
| 1788475568 | 22.22° C | 78% | 1012 hPa | 0.51 mm | - | - | - |
| 1788474988 | 22.22° C | 77% | 1011.9 hPa | 0.51 mm | - | - | - |
| 1788474369 | 22.22° C | 72% | 1011.9 hPa | 0.51 mm | - | - | - |
| 1788473768 | 22.22° C | 71% | 1012 hPa | 0 mm | - | - | - |
| 1788473169 | 22.22° C | 73% | 1012.1 hPa | 0 mm | - | - | - |
| 1788472569 | 21.67° C | 76% | 1012 hPa | 0 mm | - | - | - |
| 1788471968 | 21.67° C | 78% | 1011.8 hPa | 0 mm | - | - | - |
| 1788471368 | 21.67° C | 78% | 1011.7 hPa | 0 mm | - | - | - |
| 1788470769 | 21.67° C | 81% | 1011.6 hPa | 0 mm | - | - | - |
| 1788470169 | 21.11° C | 82% | 1011.5 hPa | 0 mm | - | - | - |
| 1788469568 | 21.11° C | 83% | 1011.3 hPa | 0 mm | - | - | - |
| 1788468968 | 20.56° C | 84% | 1011.2 hPa | 0 mm | - | - | - |
| 1788468369 | 20.56° C | 86% | 1011.4 hPa | 0 mm | - | - | - |
* Rain latest hour (hover to see other rain measurements)
** Current wind speed in m/s (hover to see current wind gust speed)